Simultaneous Nadir Overpasses (SNOs) Predictions

Prediction of SNOs between NOAA-20 and METOP-C Satellite Orbit:

Table of predicted SNOs for the next 14.0 days since TLE Epoch: 4/30/2022
Index Date (NOAA-20) Time (NOAA-20) Lat,Lon (NOAA-20) SZA (NOAA-20 ) Date (METOP-C) Time (METOP-C) Lat,Lon (METOP-C) SZA (METOP-C ) Distance(km) Time Diff (sec)
1 05/04/2022 12:03:57 -73.44, 169.55 122.48 05/04/2022 12:05:04 -73.39, 172.19 122.65 84.08 67
2 05/04/2022 12:54:39 73.24, -22.69 57.29 05/04/2022 12:55:48 73.22, -20.86 57.18 58.87 69
3 05/04/2022 13:45:21 -73.15, 144.83 122.83 05/04/2022 13:46:32 -73.07, 146.14 122.97 43.20 71
4 05/04/2022 14:36:03 72.94, -47.42 56.94 05/04/2022 14:37:16 72.90, -46.90 56.86 17.77 73
5 05/04/2022 15:26:45 -72.85, 120.09 123.17 05/04/2022 15:27:59 -72.79, 120.22 123.25 7.54 74
6 05/04/2022 16:17:30 72.80, -72.49 56.76 05/04/2022 16:18:40 72.77, -72.50 56.73 2.59 70
7 05/04/2022 17:08:13 -72.75, 94.92 123.29 05/04/2022 17:09:21 -72.77, 94.83 123.29 3.40 68
8 05/04/2022 17:59:00 72.80, -97.87 56.75 05/04/2022 18:00:01 72.80, -97.78 56.73 2.91 61
9 05/04/2022 18:49:43 -72.76, 69.53 123.31 05/04/2022 18:50:43 -72.75, 69.44 123.33 3.24 60
10 05/04/2022 19:40:29 72.75,-123.15 56.68 05/04/2022 19:41:23 72.78,-123.17 56.69 2.52 54
11 05/04/2022 20:31:13 -72.76, 44.15 123.32 05/04/2022 20:32:04 -72.78, 44.16 123.32 1.27 51
12 05/04/2022 21:21:59 72.76,-148.53 56.66 05/04/2022 21:22:45 72.75,-148.56 56.65 1.09 46
13 05/04/2022 22:12:43 -72.77, 18.76 123.34 05/04/2022 22:13:26 -72.75, 18.77 123.36 1.93 43
14 05/04/2022 23:03:29 72.76,-173.92 56.65 05/04/2022 23:04:06 72.78,-173.84 56.65 3.09 37
15 05/04/2022 23:54:12 -72.72, -6.52 123.41 05/04/2022 23:54:48 -72.73, -6.62 123.41 3.33 36
16 05/05/2022 00:44:59 72.77, 160.70 56.63 05/05/2022 00:45:28 72.76, 160.77 56.61 2.82 29
17 05/05/2022 01:35:42 -72.73, -31.90 123.42 05/05/2022 01:36:09 -72.76, -31.90 123.40 3.09 27
18 05/05/2022 02:26:28 72.72, 135.42 56.56 05/05/2022 02:26:50 72.73, 135.38 56.57 1.56 22
19 05/05/2022 03:17:12 -72.73, -57.29 123.44 05/05/2022 03:17:31 -72.73, -57.29 123.44 0.05 19
20 05/05/2022 04:07:58 72.73, 110.03 56.55 05/05/2022 04:08:12 72.71, 109.99 56.53 2.46 14
21 05/05/2022 04:58:42 -72.74, -82.67 123.45 05/05/2022 04:58:53 -72.71, -82.68 123.48 3.17 11
22 05/05/2022 05:49:28 72.73, 84.65 56.53 05/05/2022 05:49:33 72.74, 84.71 56.53 2.12 5
23 05/05/2022 06:40:12 -72.74,-108.06 123.47 05/05/2022 06:40:14 -72.74,-107.96 123.48 3.28 2
24 05/05/2022 07:30:57 72.69, 59.37 56.47 05/05/2022 07:30:55 72.71, 59.32 56.49 3.22 2
25 05/05/2022 08:21:41 -72.70,-133.34 123.54 05/05/2022 08:21:36 -72.71,-133.35 123.52 1.86 5
26 05/05/2022 09:12:27 72.69, 33.98 56.45 05/05/2022 09:12:17 72.69, 33.93 56.45 1.63 10
27 05/05/2022 10:03:11 -72.70,-158.72 123.55 05/05/2022 10:02:58 -72.69,-158.74 123.56 1.38 13
28 05/05/2022 10:53:57 72.70, 8.60 56.44 05/05/2022 10:53:38 72.72, 8.65 56.46 2.78 19
29 05/05/2022 11:44:41 -72.71, 175.89 123.57 05/05/2022 11:44:19 -72.72, 175.98 123.56 3.15 22
30 05/05/2022 12:35:27 72.70, -16.79 56.42 05/05/2022 12:35:00 72.69, -16.74 56.41 1.93 27
31 05/05/2022 13:26:11 -72.71, 150.51 123.58 05/05/2022 13:25:41 -72.69, 150.59 123.60 3.42 30
32 05/05/2022 14:16:56 72.66, -42.07 56.35 05/05/2022 14:16:22 72.67, -42.13 56.37 2.41 34
33 05/05/2022 15:07:40 -72.67, 125.23 123.65 05/05/2022 15:07:03 -72.67, 125.21 123.64 0.90 37
34 05/05/2022 15:58:26 72.66, -67.45 56.34 05/05/2022 15:57:44 72.65, -67.51 56.33 2.66 42
35 05/05/2022 16:49:10 -72.67, 99.84 123.67 05/05/2022 16:48:25 -72.65, 99.82 123.68 2.72 45
36 05/05/2022 17:39:56 72.67, -92.84 56.32 05/05/2022 17:39:05 72.67, -92.80 56.34 1.52 51
37 05/05/2022 18:30:40 -72.68, 74.46 123.68 05/05/2022 18:29:46 -72.68, 74.54 123.68 2.53 54
38 05/05/2022 19:21:26 72.67,-118.22 56.31 05/05/2022 19:20:27 72.65,-118.19 56.30 2.71 59
39 05/05/2022 20:12:09 -72.63, 49.18 123.75 05/05/2022 20:11:08 -72.65, 49.15 123.72 2.59 61
40 05/05/2022 21:02:55 72.63,-143.50 56.24 05/05/2022 21:01:49 72.63,-143.57 56.25 2.34 66
41 05/05/2022 21:53:39 -72.64, 23.79 123.77 05/05/2022 21:52:30 -72.63, 23.76 123.76 1.32 69
42 05/05/2022 22:44:25 72.63,-168.89 56.22 05/05/2022 22:43:10 72.65,-168.86 56.26 2.72 75
43 05/05/2022 23:35:07 -72.54, -1.39 123.89 05/05/2022 23:33:53 -72.55, -1.73 123.85 11.60 74
44 05/06/2022 00:25:49 72.33, 166.34 55.88 05/06/2022 00:24:38 72.32, 165.14 55.94 40.47 71
45 05/06/2022 01:16:31 -72.24, -26.17 124.23 05/06/2022 01:15:20 -72.28, -27.62 124.12 49.49 71
46 05/06/2022 02:07:13 72.03, 141.55 55.54 05/06/2022 02:06:05 72.04, 139.26 55.67 78.52 68
47 05/06/2022 02:57:55 -71.94, -50.96 124.57 05/06/2022 02:56:48 -71.95, -53.59 124.43 90.61 67



Historial Predications of SNOs between NOAA-20 and METOP-C
